Regional Weather Roundup
Issued by NWS

Home | Current Version | Previous Version | Text Only | Print | Product List | Glossary Off
Versions: 1 2 3 4 5 6 7 8 9 10 11 12 13 14 15 16 17 18 19 20 21 22 23 24 25 26 27 28

000
ASUS45 KSLC 182110
RWRUT

UTAH REGIONAL WEATHER ROUNDUP
NATIONAL WEATHER SERVICE SALT LAKE CITY UT
200 PM MST THU JAN 18 2018

UTZ001>011-023>025-182200-

NORTHERN UTAH

CITY           SKY/WX    TMP DP  RH WIND       PRES   REMARKS
BRIGHAM CITY     N/A     47  28  48 CALM      30.09F
DUGWAY         PTSUNNY   54  30  39 S10G16    30.06F
HILL AFB         N/A     50  27  41 S5        30.08F
LOGAN          CLOUDY    45  31  58 N3        30.07F
OGDEN            N/A     51  28  41 S6        30.08F
SALT LAKE CITY PTSUNNY   53  32  44 NW7       30.08F
TOOELE VALLEY    N/A     41  34  75 N6        30.10F HAZE
WENDOVER         N/A     39  29  67 VRB3      30.08F
HEBER CITY       N/A     43  23  45 CALM      30.10F
WEST JORDAN      N/A     52  31  44 S17       30.08F

$$

UTZ011>015-024>027-182200-

CENTRAL/NORTHEAST UTAH

CITY           SKY/WX    TMP DP  RH WIND       PRES   REMARKS
PROVO AIRPORT  CLOUDY    49  28  44 CALM      30.12F
MOAB/CANYONLAN   N/A     42  19  39 CALM      30.23F
DELTA            N/A     52  30  43 SW8       30.10F
PRICE            N/A     43  21  41 SE3       30.22F
RICHFIELD      SUNNY     52  27  37 CALM      30.12F
ROOSEVELT        N/A     39  12  33 CALM      30.24F
VERNAL           N/A     42  14  32 SE3       30.21F

$$

UTZ013>016-019>022-027-182200-

SOUTHERN UTAH

CITY           SKY/WX    TMP DP  RH WIND       PRES   REMARKS
BRYCE CANYON     N/A     43  25  49 SE10      30.25F
CEDAR CITY       N/A     55  27  34 SW21      30.14F
MILFORD          N/A     55  30  38 S21       30.09F
ST GEORGE        N/A     54  33  45 CALM      30.16F
HANKSVILLE       N/A     46  18  31 NW3       30.26F
KANAB          SUNNY     57  23  26 SE3       30.23F
BLANDING         N/A     45  19  36 S7        30.31F

$$

REGIONAL REPORTS     COLORADO/ARIZONA

CITY           SKY/WX    TMP DP  RH WIND       PRES   REMARKS
CRAIG, CO        N/A     39  18  42 E7        30.20F WCI  34
GRAND JUNCTION   N/A     46  15  28 S5        30.22F
RIFLE, CO        N/A     41  18  39 CALM      30.23F
MONTROSE, CO     N/A     44  13  28 N3        30.24F
CORTEZ, CO       N/A     45  20  36 S6        30.24F
COLORADO CITY    N/A     59  27  29 SE7       30.22F
PAGE, AZ         N/A     48  25  40 N3        30.22F
GRAND CANYON     N/A     56  15  20 MISG      30.25F
KINGMAN, AZ      N/A     67  26  21 SW9       30.15F
FLAGSTAFF, AZ    N/A     55   9  16 SE5       30.25F

$$

REGIONAL REPORTS    NEVADA/IDAHO/WYOMING

CITY           SKY/WX    TMP DP  RH WIND       PRES   REMARKS
LAS VEGAS, NV  PTSUNNY   62  37  39 E7        30.11F
ELY, NY          N/A     57  27  31 S9        30.09F
ELKO, NV         N/A     47  30  51 S5        29.97F
POCATELLO, ID    N/A     54  32  43 VRB5      29.97F
BURLEY, ID       N/A     52  32  46 SW24G35   29.92F
FORT BRIDGER,    N/A     52  21  30 CALM      30.13F
EVANSTON, WY     N/A     47  26  44 SW9       30.10F
ROCK SPRINGS,    N/A     48  19  31 N5        30.11F

$$




USA.gov is the U.S. government's official web portal to all federal, state and local government web resources and services.